Weather in Sadovskiy

Russia / Republic of Mordovia     54°18′53″N   45°28′27″E
temp.,
°C
wind,
m/s
gust,
m/s
humid.,
%
clouds,
%
prec.,
mm/h
press.,
hPa
HPBL,
m
27 september, mon
mon2700:00+9nne5994100 0.1 1006355
03:00+9nne51193100 0.3 1008414
06:00+8n61292100 0.4 1009416
09:00+9n71085100 0.5 1010541
12:00+9n6986100 0.1 1012929
15:00+8nne5989100 0.3 1013686
18:00+6ne5891100 0.5 1016896
21:00+5ne6994100 0.8 1018760
28 september, tue
tue2800:00+5ne61094100 0.2 1019759
03:00+4ne61088100 0.2 1022872
06:00+4ne61083100 0.0 10241120
09:00+5ne697538 0.0 1026818
12:00+8ne68565 0.0 10261166
15:00+9ne67485 0.0 10271350
18:00+5ne496296 0.0 1029247
21:00+3nne36735 0.0 1030122
29 september, wed
wed2900:00+2nne2377100 0.0 103159
03:00+2n2379100 0.0 103152
06:00+1n238298 0.0 103259
09:00+5nne356328 0.0 1032487
12:00+9nne45505 0.0 10321298
15:00+9nne44475 0.0 10321450
18:00+6nne22625 0.0 103217
21:00+4n22665 0.0 103311
30 september, thu
thu3000:00+3n11715 0.0 103310
03:00+2nnw117522 0.0 103410
06:00+2n118147 0.0 103510
09:00+6n226215 0.0 1035290
12:00+10ne234930 0.0 10341288
15:00+10nnw234957 0.0 10341382
18:00+7nw2265100 0.0 103423
21:00+7w236791 0.0 103447
1 october, fri
fri100:00+7w3767100 0.0 1034211
03:00+7wnw3873100 0.0 1034228
06:00+7wnw387896 0.0 1033232
09:00+9nw4777100 0.0 1033348
12:00+13nw566956 0.0 1033844
15:00+12nw4772100 0.1 1032451
18:00+11nw4980100 0.0 1033327
21:00+11nw4782100 0.0 1033225